This is the latest recevied weather packets stored in our database for station/object KA8DUX-2. If no packets are shown the sender has not sent any weather packets the latest 10 day(s).
| Time | Temp. | Humidity | Pressure | Rain* | Wind** | Luminosity | Snow |
|---|---|---|---|---|---|---|---|
| 1777679648 | 6.11° C | 55% | 1015.2 hPa | 0 mm | - | 14 W/m² | - |
| 1777679343 | 6.67° C | 53% | 1015.1 hPa | 0 mm | - | 15 W/m² | - |
| 1777679041 | 6.67° C | 51% | 1015 hPa | 0 mm | - | 15 W/m² | - |
| 1777678739 | 6.67° C | 51% | 1014.9 hPa | 0 mm | - | 15 W/m² | - |
| 1777678436 | 6.67° C | 53% | 1015 hPa | 0 mm | - | 14 W/m² | - |
| 1777678132 | 6.67° C | 51% | 1014.8 hPa | 0 mm | - | 17 W/m² | - |
| 1777677829 | 7.22° C | 52% | 1014.8 hPa | 0 mm | - | 33 W/m² | - |
| 1777677526 | 7.22° C | 52% | 1014.8 hPa | 0 mm | - | 48 W/m² | - |
| 1777677224 | 7.22° C | 53% | 1014.9 hPa | 0 mm | - | 59 W/m² | - |
| 1777676922 | 7.22° C | 52% | 1014.9 hPa | 0 mm | - | 67 W/m² | - |
| 1777676622 | 7.22° C | 50% | 1014.8 hPa | 0 mm | - | 71 W/m² | - |
| 1777676318 | 7.22° C | 51% | 1014.6 hPa | 0 mm | - | 73 W/m² | - |
| 1777676016 | 7.22° C | 51% | 1014.8 hPa | 0 mm | - | 75 W/m² | - |
| 1777675712 | 7.22° C | 53% | 1015 hPa | 0 mm | - | 85 W/m² | - |
| 1777675409 | 7.22° C | 53% | 1015 hPa | 0 mm | - | 89 W/m² | - |
| 1777675106 | 7.22° C | 54% | 1014.8 hPa | 0 mm | - | 81 W/m² | - |
| 1777674801 | 6.67° C | 54% | 1014.9 hPa | 0 mm | - | 74 W/m² | - |
| 1777674498 | 6.67° C | 54% | 1014.9 hPa | 0 mm | - | 74 W/m² | - |
| 1777674196 | 6.67° C | 53% | 1014.8 hPa | 0 mm | - | 69 W/m² | - |
| 1777673892 | 6.67° C | 54% | 1014.8 hPa | 0 mm | - | 54 W/m² | - |
| 1777673589 | 6.67° C | 55% | 1014.8 hPa | 0 mm | - | 47 W/m² | - |
| 1777673287 | 6.67° C | 56% | 1014.8 hPa | 0 mm | - | 42 W/m² | - |
| 1777672984 | 7.22° C | 55% | 1014.8 hPa | 0 mm | - | 41 W/m² | - |
| 1777672681 | 7.22° C | 58% | 1015 hPa | 0 mm | - | 43 W/m² | - |
| 1777672376 | 7.22° C | 59% | 1014.8 hPa | 0 mm | - | 49 W/m² | - |
* Rain latest hour (hover to see other rain measurements)
** Current wind speed in m/s (hover to see current wind gust speed)